Simultaneous Nadir Overpasses (SNOs) Predictions

Prediction of SNOs between AQUA and NPP Satellite Orbit:

Table of predicted SNOs for the next 14.0 days since TLE Epoch: 3/6/2021
Index Date (AQUA) Time (AQUA) Lat,Lon (AQUA) SZA (AQUA ) Date (NPP) Time (NPP) Lat,Lon (NPP) SZA (NPP ) Distance(km) Time Diff (sec)
1 03/08/2021 14:05:14 75.71,-153.12 102.64 03/08/2021 14:04:19 75.71,-153.10 102.68 0.61 55
2 03/08/2021 14:54:21 -76.69, 17.66 78.52 03/08/2021 14:54:43 -76.69, 17.69 78.55 0.89 22
3 03/11/2021 06:21:32 76.18, -35.77 101.03 03/11/2021 06:21:02 76.20, -35.68 101.03 2.75 30
4 03/11/2021 07:10:47 -76.77, 133.84 79.68 03/11/2021 07:11:35 -76.77, 133.75 79.70 2.54 48
5 03/13/2021 21:54:34 -56.27,-112.33 60.07 03/13/2021 21:53:22 -56.50,-113.85 59.61 97.27 72
6 03/13/2021 22:37:58 76.31, 80.51 99.81 03/13/2021 22:37:54 76.31, 80.50 99.81 0.24 4
7 03/13/2021 23:27:06 -77.22,-108.62 81.29 03/13/2021 23:28:19 -77.22,-108.59 81.36 0.90 73
8 03/16/2021 14:05:18 -75.46, 26.18 80.28 03/16/2021 14:04:23 -75.45, 26.11 80.22 2.13 55
9 03/16/2021 14:54:22 76.52,-162.90 98.49 03/16/2021 14:54:44 76.51,-162.98 98.49 2.27 22
10 03/19/2021 06:21:32 -76.16, 144.15 82.16 03/19/2021 06:21:02 -76.17, 144.23 82.15 2.35 30



Historial Predications of SNOs between AQUA and NPP
